Location: Most
(50.5133°N, 13.6207°E)
Time: 19:18:31
(UTC+02:00)

ISS - Pass Details

Date: 23 May 2019
Orbit: 407 x 410 km, 51.6° (Epoch: 23 May)

Event Time Altitude Azimuth Distance (km) Brightness Sun altitude
Rises 21:50:19 0° 253° (WSW) 2,329 0.4 -7.2°
Reaches altitude 10° 21:52:23 10° 253° (WSW) 1,470 -0.6 -7.5°
Maximum altitude 21:55:42 87° 166° (SSE) 414 -3.8 -7.8°
Drops below altitude 10° 21:59:00 10° 77° (ENE) 1,475 -1.3 -8.2°
Sets 22:01:06 0° 77° (ENE) 2,338 -0.3 -8.4°
